Wind_Speed
12 12 12 12 13 13 13 14 14 15 15 14 14 14 13 13 13 14 14 15 15 15 15 15 15 15 16 16 16 16 16 16 16 16 17 17 17 17 18 19 19 19 20
12 12 13 13 14 14 15 15 16 16 16 15 15 15 15 15 15 16 16 16 16 16 16 16 16 17 17 17 17 17 17 18 18 18 18 19 19 19 20 20 21 22 22
13 13 14 14 15 16 16 17 17 17 17 17 16 17 17 17 17 17 17 17 18 18 18 18 18 18 18 19 19 19 19 20 20 20 21 21 22 22 23 23 23 24 24
14 15 15 15 16 17 17 17 17 17 18 18 18 18 18 18 18 19 19 19 19 19 20 20 20 20 20 21 21 21 21 22 22 23 23 24 24 25 25 26 26 27 27
15 15 15 15 15 16 17 17 18 18 19 19 19 19 19 20 19 19 20 20 20 21 21 21 21 22 22 22 23 23 23 24 25 25 26 27 27 28 28 29 29 29 29
15 16 16 16 17 17 17 18 19 19 19 20 20 20 21 21 21 21 22 22 22 22 22 22 22 23 24 24 25 25 26 26 27 28 28 29 30 30 31 31 31 31 31
17 17 17 18 18 19 19 20 20 20 21 21 21 21 22 23 23 23 23 23 23 24 24 24 24 25 26 27 28 28 28 29 30 30 31 31 32 33 33 33 33 33 32
18 18 18 19 20 20 20 21 21 21 21 22 22 23 23 24 24 24 24 24 25 25 26 26 26 27 28 28 29 30 31 31 32 33 34 34 34 34 35 35 34 34 34
20 19 20 20 21 21 21 22 22 22 22 23 24 24 24 24 25 25 26 26 27 27 28 28 29 29 30 30 31 32 33 34 34 35 36 36 36 36 36 36 36 36 36
20 21 21 21 22 22 22 23 23 23 23 24 24 24 25 25 26 27 28 28 29 30 30 30 31 32 33 33 34 35 35 36 36 37 37 37 37 38 38 38 39 39 39
21 21 22 22 22 23 23 24 24 24 25 25 25 26 27 27 28 29 30 30 31 31 32 32 33 34 35 35 36 37 38 38 39 39 39 39 39 39 40 40 41 42 42
22 23 23 23 24 24 25 25 25 25 26 26 27 28 29 29 30 31 31 32 33 34 34 34 35 35 37 38 38 39 40 41 41 41 41 41 41 41 42 43 43 43 43
25 25 25 25 26 26 26 26 27 27 27 28 29 30 30 31 32 33 33 34 35 36 36 37 37 38 39 40 40 41 42 42 43 43 43 43 43 43 44 45 45 45 44
27 27 27 27 27 27 28 28 29 29 30 31 32 32 33 33 34 35 35 36 36 37 38 39 39 40 40 41 42 43 43 44 45 45 45 45 45 46 47 47 47 46 46
28 28 29 29 29 29 30 30 31 32 33 33 34 34 35 35 36 36 37 37 38 39 40 41 41 42 42 43 44 44 45 45 46 47 47 47 48 49 48 48 48 48 48
29 30 30 31 31 31 31 32 32 33 34 34 35 36 36 36 37 38 39 39 40 41 42 42 43 43 44 45 46 46 47 47 48 49 49 49 50 50 49 49 49 50 50
32 32 32 32 32 32 33 33 33 34 35 36 37 37 38 38 39 40 41 42 43 43 43 44 44 45 46 47 47 48 49 49 50 50 51 51 51 51 50 50 51 51 51
33 33 33 33 34 34 34 35 35 35 36 37 38 39 40 41 42 43 44 44 44 45 45 45 46 46 47 48 49 49 50 50 51 51 52 52 52 52 52 52 53 52 52
34 34 34 34 35 35 36 36 37 38 38 38 39 40 42 43 44 44 45 46 46 47 47 47 48 48 49 50 50 50 50 51 51 52 52 52 53 53 53 54 54 53 52
34 34 35 35 35 36 37 38 38 39 40 41 41 42 43 44 45 46 46 47 47 48 48 49 49 50 50 51 51 51 52 52 52 53 53 53 54 54 55 54 54 53 53
34 34 35 36 37 37 38 39 40 41 42 42 43 44 45 45 46 46 47 47 47 48 48 49 49 50 50 51 51 52 52 53 53 54 54 54 54 54 54 54 54 53 53
35 35 36 37 38 39 39 40 41 42 43 43 44 44 45 46 46 46 47 47 48 48 49 50 50 50 50 50 50 51 52 52 53 54 54 55 54 54 54 54 53 53 53
36 37 38 39 40 40 41 42 42 43 43 44 45 45 46 46 46 46 47 47 48 48 49 50 50 49 49 50 50 51 51 52 52 54 54 54 53 53 53 52 52 51 51
38 39 39 40 40 41 42 42 43 43 43 44 44 45 45 46 46 46 46 47 47 48 48 48 48 49 49 50 50 51 52 52 52 54 54 53 52 52 51 51 50 49 48
39 39 40 40 41 42 42 43 43 43 44 45 45 45 45 46 46 46 47 47 47 48 48 48 48 49 49 50 50 50 51 52 53 53 53 52 51 50 50 49 48 46 45
39 40 41 41 42 42 42 42 43 43 44 44 45 45 45 46 46 47 47 47 47 47 47 48 48 49 49 50 50 50 51 51 51 51 51 50 49 49 48 46 44 43 43
Wind_Direction
261 266 270 275 278 281 285 287 287 287 287 288 288 290 292 295 296 298 299 298 300 302 304 306 309 311 313 314 313 313 313 312 312 312 312 310 308 305 304 303 301 298 294
264 268 271 274 278 281 283 285 286 286 286 285 285 286 289 291 294 295 297 297 298 299 302 304 306 308 310 310 310 310 310 310 310 309 308 308 307 306 305 303 301 299 297
268 269 272 276 279 281 282 284 284 285 285 284 284 286 288 291 293 294 295 295 295 296 298 300 302 304 306 307 307 307 307 306 307 306 305 305 306 305 304 303 301 299 297
272 272 273 276 279 281 282 284 285 284 284 284 285 286 288 290 292 292 293 293 293 294 295 297 298 300 301 303 304 304 305 305 304 303 303 302 303 303 303 302 300 299 297
272 274 277 280 283 284 284 285 286 285 283 284 285 286 288 290 291 292 293 293 293 293 294 295 297 299 300 301 302 303 303 303 303 302 301 300 300 301 301 300 299 297 295
272 275 277 280 283 285 286 286 287 288 286 285 285 285 286 288 290 291 292 293 292 292 293 294 296 297 298 299 300 301 302 302 302 302 302 302 300 299 300 299 297 296 294
273 275 278 279 282 284 285 287 287 287 286 286 286 286 287 288 289 290 291 292 292 292 293 294 295 296 297 298 299 299 300 301 301 301 302 302 301 300 300 299 298 296 294
273 276 278 280 283 285 286 286 286 287 286 285 285 286 287 288 288 290 290 291 292 292 292 292 294 296 296 297 298 299 300 301 301 301 301 301 301 301 300 299 298 296 294
274 277 279 281 283 284 285 285 286 287 287 287 287 287 288 289 290 291 291 291 292 292 292 292 294 295 296 297 298 299 299 299 300 300 301 301 300 299 298 298 297 297 296
275 278 279 280 281 282 283 284 285 285 287 288 289 289 288 289 290 290 291 291 292 292 293 292 293 295 296 296 297 298 298 299 298 299 299 299 299 298 298 297 297 296 296
278 279 280 280 281 282 283 285 285 285 286 287 288 288 289 290 291 291 292 292 293 293 293 293 294 295 296 297 297 298 298 298 298 298 298 298 297 297 297 297 297 296 295
278 280 280 280 281 283 283 284 285 285 286 287 288 289 290 290 291 291 292 293 294 294 294 294 294 294 295 296 297 297 298 298 298 297 297 297 297 297 296 296 296 295 295
278 279 280 281 282 283 283 283 284 285 285 286 288 289 290 291 291 291 291 292 293 294 294 294 294 294 295 296 297 297 297 297 297 297 297 296 296 295 296 295 295 294 294
279 281 282 282 283 283 283 284 284 284 285 287 288 289 290 291 291 291 291 292 293 293 294 294 294 294 295 296 297 297 297 297 297 297 297 296 295 295 295 294 293 293 293
280 281 282 283 283 283 283 284 284 284 285 286 288 289 290 291 292 292 293 293 293 293 294 295 295 295 295 296 296 296 296 296 296 297 296 295 295 295 295 293 293 292 292
281 282 282 283 283 284 284 284 285 285 286 286 287 289 290 292 293 293 294 295 294 294 294 294 294 295 295 295 296 296 296 296 296 297 296 296 296 296 295 294 293 293 292
282 282 283 284 284 284 284 284 285 286 287 287 288 289 290 292 293 293 294 294 295 295 295 295 294 295 296 296 296 296 295 296 296 297 296 296 296 295 295 295 294 294 293
283 284 284 284 284 284 285 285 285 286 287 288 289 290 291 292 293 294 294 295 295 295 295 295 295 295 296 296 296 296 296 296 296 297 296 296 296 295 295 295 295 294 293
283 284 284 284 285 285 285 285 286 286 287 288 289 290 291 292 293 294 294 294 295 295 295 295 295 295 295 295 295 295 296 296 297 297 297 297 296 296 296 295 294 293 292
283 283 284 285 285 286 286 287 287 288 289 290 290 291 292 293 294 294 294 294 294 294 295 295 295 295 295 295 295 295 296 297 297 298 297 297 296 296 296 295 294 293 292
284 284 285 285 285 286 286 287 288 289 290 291 291 292 293 294 294 294 294 294 294 295 295 296 297 296 296 296 296 296 297 297 297 298 298 297 297 297 296 295 294 293 292
285 285 285 285 286 287 288 288 290 290 291 291 292 293 294 294 293 293 294 294 295 296 296 297 298 298 298 297 298 298 299 299 299 299 299 298 298 297 297 296 294 293 292
285 286 286 287 288 289 289 290 291 291 292 292 293 293 294 294 294 295 295 296 296 296 297 298 299 299 298 298 299 300 300 300 301 301 301 300 299 298 298 297 296 295 294
286 287 288 289 289 290 290 291 291 292 292 292 293 294 294 294 295 296 297 297 297 298 299 299 300 299 299 300 301 301 301 301 301 301 301 300 299 299 298 298 297 296 296
288 288 288 289 290 290 291 291 291 292 292 293 293 294 294 295 296 297 297 298 298 299 299 300 301 301 300 301 301 301 302 302 303 302 302 301 299 299 299 299 298 297 296
289 289 289 289 290 290 291 292 292 292 293 294 294 295 295 296 297 297 297 298 298 298 299 300 301 302 301 301 302 302 303 304 304 304 303 302 301 300 300 299 298 297 296
Height
5874 5875 5875 5876 5876 5876 5875 5875 5874 5874 5874 5873 5872 5872 5871 5870 5870 5869 5868 5867 5866 5864 5863 5861 5860 5858 5856 5854 5852 5850 5849 5847 5845 5843 5841 5839 5837 5836 5834 5832 5830 5829 5827
5871 5872 5872 5872 5872 5872 5872 5871 5871 5870 5870 5869 5869 5868 5868 5867 5866 5865 5864 5863 5862 5861 5859 5858 5856 5855 5853 5851 5849 5847 5845 5843 5841 5839 5837 5835 5833 5831 5829 5827 5825 5823 5821
5868 5868 5868 5868 5868 5868 5868 5867 5867 5866 5866 5865 5865 5864 5864 5863 5862 5861 5860 5859 5858 5857 5855 5854 5852 5851 5849 5847 5845 5843 5841 5839 5837 5835 5833 5830 5828 5826 5823 5821 5819 5817 5814
5864 5864 5864 5864 5864 5864 5864 5863 5863 5862 5862 5861 5861 5860 5859 5858 5857 5857 5856 5855 5853 5852 5851 5849 5848 5846 5844 5842 5840 5838 5836 5834 5832 5829 5827 5825 5822 5820 5817 5815 5812 5810 5807
5860 5860 5860 5860 5860 5860 5859 5859 5858 5858 5857 5857 5856 5855 5855 5854 5853 5852 5851 5850 5848 5847 5846 5844 5842 5841 5839 5837 5835 5833 5831 5828 5826 5823 5821 5818 5816 5813 5810 5807 5804 5802 5799
5856 5856 5856 5856 5856 5855 5855 5854 5854 5853 5852 5852 5851 5850 5850 5848 5847 5846 5845 5844 5843 5841 5840 5838 5837 5835 5833 5831 5829 5826 5824 5822 5819 5816 5814 5811 5808 5805 5802 5799 5796 5794 5792
5851 5851 5851 5851 5851 5850 5850 5849 5849 5848 5847 5846 5846 5845 5844 5843 5842 5841 5839 5838 5837 5835 5834 5832 5831 5829 5827 5824 5822 5820 5817 5814 5811 5809 5806 5802 5799 5796 5793 5790 5787 5784 5782
5847 5846 5846 5846 5846 5845 5845 5844 5843 5842 5842 5841 5840 5839 5838 5837 5836 5835 5833 5832 5831 5829 5827 5826 5824 5822 5819 5817 5815 5812 5809 5806 5803 5800 5797 5793 5789 5786 5782 5779 5777 5774 5772
5842 5841 5841 5841 5840 5840 5839 5839 5838 5837 5836 5835 5834 5833 5832 5831 5829 5828 5827 5825 5824 5822 5820 5818 5816 5814 5811 5809 5807 5804 5801 5798 5794 5790 5787 5783 5779 5775 5772 5769 5766 5763 5761
5836 5836 5835 5835 5835 5834 5833 5833 5832 5831 5830 5829 5828 5827 5826 5824 5823 5821 5819 5818 5816 5815 5813 5810 5808 5805 5803 5800 5797 5794 5791 5788 5784 5781 5777 5773 5769 5765 5761 5758 5755 5751 5748
5830 5830 5829 5829 5828 5828 5827 5826 5825 5824 5823 5822 5821 5820 5819 5817 5816 5814 5812 5810 5808 5806 5804 5802 5799 5796 5793 5790 5787 5784 5781 5777 5774 5770 5766 5762 5758 5755 5751 5747 5743 5739 5735
5824 5824 5823 5823 5822 5821 5820 5819 5818 5817 5816 5815 5814 5813 5811 5809 5808 5806 5803 5801 5799 5797 5794 5792 5789 5786 5783 5780 5777 5773 5770 5766 5763 5759 5755 5751 5747 5743 5739 5735 5731 5727 5723
5817 5817 5816 5816 5815 5814 5814 5812 5811 5810 5809 5808 5806 5805 5803 5801 5799 5797 5795 5792 5790 5787 5784 5782 5779 5776 5773 5769 5766 5762 5758 5754 5750 5747 5743 5739 5735 5730 5726 5722 5718 5714 5710
5811 5810 5809 5809 5808 5807 5806 5805 5804 5802 5801 5800 5798 5796 5794 5793 5790 5788 5785 5782 5780 5777 5774 5771 5768 5765 5761 5758 5754 5750 5746 5742 5737 5733 5729 5725 5721 5717 5712 5708 5704 5700 5697
5803 5802 5801 5801 5800 5799 5798 5796 5795 5794 5792 5791 5789 5787 5785 5783 5780 5778 5775 5772 5769 5766 5763 5760 5756 5753 5750 5746 5742 5737 5733 5729 5724 5720 5715 5711 5707 5702 5697 5693 5689 5685 5682
5795 5794 5793 5792 5791 5790 5789 5787 5785 5784 5782 5781 5779 5777 5775 5772 5770 5767 5764 5761 5758 5755 5751 5748 5744 5740 5737 5733 5729 5724 5720 5715 5710 5705 5701 5696 5691 5687 5682 5678 5673 5670 5666
5786 5785 5784 5783 5782 5780 5779 5778 5776 5775 5773 5771 5769 5766 5764 5762 5759 5756 5752 5749 5746 5742 5739 5735 5731 5727 5723 5719 5714 5710 5705 5700 5696 5691 5686 5681 5676 5671 5667 5662 5658 5654 5650
5777 5776 5774 5773 5772 5771 5769 5768 5766 5764 5763 5761 5758 5756 5753 5750 5747 5743 5740 5737 5733 5729 5726 5722 5718 5714 5709 5704 5700 5695 5690 5685 5680 5675 5670 5665 5660 5655 5651 5646 5642 5637 5633
5767 5766 5764 5763 5762 5760 5759 5757 5755 5753 5752 5750 5747 5744 5741 5738 5735 5731 5727 5724 5720 5716 5712 5708 5704 5699 5694 5690 5685 5680 5675 5670 5665 5660 5654 5649 5644 5639 5634 5630 5625 5620 5616
5757 5756 5754 5753 5751 5750 5748 5746 5744 5742 5740 5737 5735 5732 5729 5725 5722 5718 5714 5710 5706 5702 5698 5693 5689 5684 5679 5674 5669 5664 5659 5654 5649 5644 5638 5633 5628 5623 5618 5613 5608 5603 5599
5747 5745 5744 5742 5741 5739 5737 5734 5732 5730 5727 5725 5722 5718 5715 5712 5708 5704 5700 5696 5692 5688 5683 5679 5674 5669 5664 5659 5654 5649 5644 5638 5633 5628 5622 5617 5611 5606 5601 5596 5591 5586 5581
5737 5735 5733 5731 5729 5727 5725 5722 5720 5717 5714 5712 5708 5705 5701 5698 5694 5690 5686 5682 5678 5673 5668 5664 5659 5654 5649 5644 5638 5633 5628 5623 5617 5611 5606 5600 5595 5590 5584 5579 5574 5569 5564
5726 5724 5722 5720 5718 5715 5712 5710 5707 5704 5701 5698 5695 5691 5688 5684 5680 5676 5672 5668 5663 5659 5654 5649 5644 5639 5633 5628 5623 5618 5613 5607 5602 5595 5590 5584 5579 5573 5568 5563 5557 5552 5548
5715 5713 5710 5708 5706 5703 5700 5697 5694 5691 5688 5684 5681 5678 5674 5670 5666 5662 5658 5654 5649 5644 5639 5634 5630 5624 5619 5614 5608 5603 5597 5592 5586 5580 5574 5568 5563 5558 5552 5547 5542 5537 5532
5703 5701 5698 5696 5693 5690 5687 5684 5681 5678 5674 5671 5668 5664 5660 5657 5653 5648 5644 5640 5635 5630 5625 5620 5615 5610 5605 5600 5594 5588 5582 5576 5570 5564 5558 5552 5547 5542 5537 5532 5527 5522 5518
5692 5689 5686 5683 5680 5677 5674 5671 5668 5665 5661 5658 5654 5650 5647 5643 5639 5635 5630 5626 5621 5616 5612 5607 5602 5596 5591 5585 5580 5574 5568 5561 5555 5549 5543 5537 5532 5527 5522 5518 5513 5509 5505